Time,TemperatureF,DewpointF,PressureIn,WindDirection,WindDirectionDegrees,WindSpeedMPH,WindSpeedGustMPH,Humidity,HourlyPrecipIn,Conditions,Clouds,dailyrainin,SolarRadiationWatts/m^2,SoftwareType,DateUTC
2013-04-13 00:10:00,40.9,33.0,30.05,NW,326,0.0,0.0,72,0.00,,,0.00,0,weatherlink.com 1.10,2013-04-13 05:10:00,
2013-04-13 00:25:00,40.6,32.0,30.05,NW,326,0.0,1.0,72,0.00,,,0.00,0,weatherlink.com 1.10,2013-04-13 05:25:00,
2013-04-13 00:40:00,40.2,33.0,30.05,NW,326,0.0,1.0,74,0.00,,,0.00,0,weatherlink.com 1.10,2013-04-13 05:40:00,
2013-04-13 00:55:00,39.8,32.0,30.05,NW,326,0.0,1.0,75,0.00,,,0.00,0,weatherlink.com 1.10,2013-04-13 05:55:00,
2013-04-13 01:10:00,39.3,33.0,30.05,NW,326,0.0,0.0,77,0.00,,,0.00,0,weatherlink.com 1.10,2013-04-13 06:10:00,
2013-04-13 01:25:00,38.8,33.0,30.05,NW,326,0.0,0.0,78,0.00,,,0.00,0,weatherlink.com 1.10,2013-04-13 06:25:00,
2013-04-13 01:40:00,38.4,33.0,30.04,NW,326,0.0,0.0,80,0.00,,,0.00,0,weatherlink.com 1.10,2013-04-13 06:40:00,
2013-04-13 01:55:00,37.9,33.0,30.05,NW,326,0.0,1.0,81,0.00,,,0.00,0,weatherlink.com 1.10,2013-04-13 06:55:00,
2013-04-13 02:10:00,37.9,33.0,30.06,NW,326,0.0,3.0,83,0.00,,,0.00,0,weatherlink.com 1.10,2013-04-13 07:10:00,
2013-04-13 02:25:00,37.9,33.0,30.06,NW,326,0.0,1.0,83,0.00,,,0.00,0,weatherlink.com 1.10,2013-04-13 07:25:00,
2013-04-13 02:40:00,37.9,33.0,30.05,NW,326,0.0,0.0,82,0.00,,,0.00,0,weatherlink.com 1.10,2013-04-13 07:40:00,
2013-04-13 02:55:00,37.6,32.0,30.05,NW,326,0.0,0.0,81,0.00,,,0.00,0,weatherlink.com 1.10,2013-04-13 07:55:00,
2013-04-13 03:10:00,36.9,32.0,30.04,NW,326,0.0,0.0,81,0.00,,,0.00,0,weatherlink.com 1.10,2013-04-13 08:10:00,
2013-04-13 03:25:00,36.2,31.0,30.05,NW,326,0.0,0.0,81,0.00,,,0.00,0,weatherlink.com 1.10,2013-04-13 08:25:00,
2013-04-13 03:55:00,34.9,30.0,30.05,NW,326,0.0,1.0,82,0.00,,,0.00,0,weatherlink.com 1.10,2013-04-13 08:55:00,
2013-04-13 04:10:00,34.4,30.0,30.06,NW,326,0.0,0.0,83,0.00,,,0.00,0,weatherlink.com 1.10,2013-04-13 09:10:00,
2013-04-13 04:40:00,34.1,30.0,30.06,NW,326,0.0,2.0,86,0.00,,,0.00,0,weatherlink.com 1.10,2013-04-13 09:40:00,
2013-04-13 04:56:00,34.1,31.0,30.05,NW,326,0.0,0.0,87,0.00,,,0.00,0,weatherlink.com 1.10,2013-04-13 09:56:00,
2013-04-13 05:11:00,34.3,31.0,30.06,NW,326,0.0,1.0,88,0.00,,,0.00,0,weatherlink.com 1.10,2013-04-13 10:11:00,
2013-04-13 05:41:00,34.5,32.0,30.06,NW,326,0.0,1.0,89,0.00,,,0.00,0,weatherlink.com 1.10,2013-04-13 10:41:00,
2013-04-13 05:56:00,34.2,31.0,30.05,NW,326,0.0,1.0,89,0.00,,,0.00,0,weatherlink.com 1.10,2013-04-13 10:56:00,
2013-04-13 06:26:00,33.5,31.0,30.05,NW,326,0.0,1.0,89,0.00,,,0.00,0,weatherlink.com 1.10,2013-04-13 11:26:00,
2013-04-13 06:41:00,33.4,31.0,30.06,NW,326,0.0,0.0,89,0.00,,,0.00,0,weatherlink.com 1.10,2013-04-13 11:41:00,
2013-04-13 06:56:00,33.2,30.0,30.06,NW,326,0.0,0.0,89,0.00,,,0.00,9,weatherlink.com 1.10,2013-04-13 11:56:00,
2013-04-13 07:11:00,33.3,30.0,30.07,NW,326,0.0,0.0,89,0.00,,,0.00,26,weatherlink.com 1.10,2013-04-13 12:11:00,
2013-04-13 07:26:00,33.8,31.0,30.07,NW,326,0.0,0.0,90,0.00,,,0.00,33,weatherlink.com 1.10,2013-04-13 12:26:00,
2013-04-13 07:41:00,34.7,32.0,30.07,NW,326,0.0,1.0,91,0.00,,,0.00,56,weatherlink.com 1.10,2013-04-13 12:41:00,
2013-04-13 07:56:00,36.1,34.0,30.07,NW,326,0.0,1.0,91,0.00,,,0.00,118,weatherlink.com 1.10,2013-04-13 12:56:00,
2013-04-13 08:26:00,39.1,36.0,30.07,NW,326,0.0,1.0,89,0.00,,,0.00,223,weatherlink.com 1.10,2013-04-13 13:26:00,
2013-04-13 10:11:00,44.4,37.0,30.05,NE,51,2.0,4.0,76,0.00,,,0.00,360,weatherlink.com 1.10,2013-04-13 15:11:00,
2013-04-13 11:41:00,54.2,40.0,30.01,ESE,114,0.0,7.0,59,0.00,,,0.00,780,weatherlink.com 1.10,2013-04-13 16:41:00,
2013-04-13 11:56:00,55.4,40.0,30.00,SSE,166,2.0,6.0,56,0.00,,,0.00,809,weatherlink.com 1.10,2013-04-13 16:56:00,
2013-04-13 12:11:00,55.5,39.0,29.99,SE,132,5.0,7.0,55,0.00,,,0.00,374,weatherlink.com 1.10,2013-04-13 17:11:00,
2013-04-13 12:26:00,56.1,38.0,29.98,ESE,123,5.0,8.0,52,0.00,,,0.00,517,weatherlink.com 1.10,2013-04-13 17:26:00,
2013-04-13 12:56:00,55.6,37.0,29.97,ESE,119,2.0,7.0,50,0.00,,,0.00,309,weatherlink.com 1.10,2013-04-13 17:56:00,
2013-04-13 13:42:00,57.4,38.0,29.93,ESE,113,1.0,11.0,49,0.00,,,0.00,478,weatherlink.com 1.10,2013-04-13 18:42:00,
2013-04-13 14:11:00,59.5,41.0,29.91,ESE,107,4.0,14.0,50,0.00,,,0.00,893,weatherlink.com 1.10,2013-04-13 19:11:00,
2013-04-13 14:27:00,59.5,40.0,29.90,SE,128,6.0,12.0,48,0.00,,,0.00,726,weatherlink.com 1.10,2013-04-13 19:27:00,
2013-04-13 14:42:00,59.6,40.0,29.89,East,89,6.0,13.0,49,0.00,,,0.00,984,weatherlink.com 1.10,2013-04-13 19:42:00,
2013-04-13 14:57:00,60.4,40.0,29.87,SE,135,1.0,8.0,47,0.00,,,0.00,830,weatherlink.com 1.10,2013-04-13 19:57:00,
2013-04-13 15:12:00,61.3,42.0,29.86,East,80,1.0,11.0,50,0.00,,,0.00,802,weatherlink.com 1.10,2013-04-13 20:12:00,
2013-04-13 15:27:00,61.3,42.0,29.85,East,91,2.0,14.0,49,0.00,,,0.00,777,weatherlink.com 1.10,2013-04-13 20:27:00,
2013-04-13 15:42:00,62.0,43.0,29.84,East,91,7.0,12.0,50,0.00,,,0.00,754,weatherlink.com 1.10,2013-04-13 20:42:00,
2013-04-13 15:57:00,63.0,43.0,29.83,East,94,8.0,14.0,48,0.00,,,0.00,737,weatherlink.com 1.10,2013-04-13 20:57:00,
2013-04-13 16:12:00,62.9,43.0,29.82,East,101,5.0,11.0,49,0.00,,,0.00,677,weatherlink.com 1.10,2013-04-13 21:12:00,
2013-04-13 16:27:00,63.0,43.0,29.81,East,86,10.0,14.0,48,0.00,,,0.00,643,weatherlink.com 1.10,2013-04-13 21:27:00,
2013-04-13 16:42:00,63.2,45.0,29.80,ESE,122,5.0,14.0,51,0.00,,,0.00,642,weatherlink.com 1.10,2013-04-13 21:42:00,
2013-04-13 16:57:00,63.8,44.0,29.79,East,87,9.0,14.0,49,0.00,,,0.00,626,weatherlink.com 1.10,2013-04-13 21:57:00,
2013-04-13 17:12:00,63.9,44.0,29.78,ESE,104,9.0,15.0,49,0.00,,,0.00,526,weatherlink.com 1.10,2013-04-13 22:12:00,
2013-04-13 17:27:00,64.5,45.0,29.77,East,87,5.0,10.0,49,0.00,,,0.00,475,weatherlink.com 1.10,2013-04-13 22:27:00,
2013-04-13 17:42:00,64.2,45.0,29.77,ESE,102,7.0,10.0,50,0.00,,,0.00,97,weatherlink.com 1.10,2013-04-13 22:42:00,
2013-04-13 17:57:00,64.5,45.0,29.75,East,82,10.0,10.0,50,0.00,,,0.00,357,weatherlink.com 1.10,2013-04-13 22:57:00,
2013-04-13 18:12:00,64.9,46.0,29.75,East,91,6.0,12.0,50,0.00,,,0.00,267,weatherlink.com 1.10,2013-04-13 23:12:00,
2013-04-13 18:27:00,64.6,46.0,29.74,ESE,109,7.0,13.0,51,0.00,,,0.00,204,weatherlink.com 1.10,2013-04-13 23:27:00,
2013-04-13 18:42:00,64.6,46.0,29.73,ESE,116,5.0,13.0,51,0.00,,,0.00,200,weatherlink.com 1.10,2013-04-13 23:42:00,
2013-04-13 18:57:00,64.4,46.0,29.73,SE,132,4.0,14.0,52,0.00,,,0.00,58,weatherlink.com 1.10,2013-04-13 23:57:00,
2013-04-13 19:12:00,64.2,47.0,29.73,East,85,2.0,12.0,53,0.00,,,0.00,60,weatherlink.com 1.10,2013-04-14 00:12:00,
2013-04-13 19:27:00,63.8,46.0,29.72,East,81,2.0,11.0,53,0.00,,,0.00,32,weatherlink.com 1.10,2013-04-14 00:27:00,
2013-04-13 19:42:00,63.3,47.0,29.72,ESE,105,2.0,8.0,55,0.00,,,0.00,16,weatherlink.com 1.10,2013-04-14 00:42:00,
2013-04-13 19:57:00,62.6,46.0,29.71,East,79,2.0,9.0,56,0.00,,,0.00,0,weatherlink.com 1.10,2013-04-14 00:57:00,
2013-04-13 20:12:00,62.0,47.0,29.71,East,88,3.0,9.0,58,0.00,,,0.00,0,weatherlink.com 1.10,2013-04-14 01:12:00,
2013-04-13 20:27:00,61.8,47.0,29.71,East,84,2.0,8.0,58,0.00,,,0.00,0,weatherlink.com 1.10,2013-04-14 01:27:00,
2013-04-13 20:42:00,61.5,47.0,29.72,East,90,6.0,8.0,59,0.00,,,0.00,0,weatherlink.com 1.10,2013-04-14 01:42:00,
2013-04-13 20:57:00,60.9,47.0,29.73,ESE,105,2.0,5.0,60,0.00,,,0.00,0,weatherlink.com 1.10,2013-04-14 01:57:00,
2013-04-13 21:12:00,60.4,47.0,29.73,ESE,103,2.0,5.0,61,0.00,,,0.00,0,weatherlink.com 1.10,2013-04-14 02:12:00,
2013-04-13 21:27:00,60.0,47.0,29.73,East,86,3.0,7.0,62,0.00,,,0.00,0,weatherlink.com 1.10,2013-04-14 02:27:00,
2013-04-13 21:42:00,59.8,47.0,29.73,East,90,1.0,7.0,63,0.00,,,0.00,0,weatherlink.com 1.10,2013-04-14 02:42:00,
2013-04-13 21:57:00,59.4,47.0,29.73,East,86,2.0,6.0,63,0.00,,,0.00,0,weatherlink.com 1.10,2013-04-14 02:57:00,
2013-04-13 22:12:00,58.9,47.0,29.73,ENE,65,4.0,5.0,64,0.00,,,0.00,0,weatherlink.com 1.10,2013-04-14 03:12:00,
2013-04-13 22:27:00,58.6,47.0,29.72,East,85,7.0,9.0,65,0.00,,,0.00,0,weatherlink.com 1.10,2013-04-14 03:27:00,
2013-04-13 22:42:00,58.5,47.0,29.73,East,80,3.0,8.0,65,0.00,,,0.00,0,weatherlink.com 1.10,2013-04-14 03:42:00,
2013-04-13 22:57:00,58.3,46.0,29.72,East,98,2.0,10.0,65,0.00,,,0.00,0,weatherlink.com 1.10,2013-04-14 03:57:00,
2013-04-13 23:12:00,58.0,46.0,29.72,East,82,1.0,8.0,65,0.00,,,0.00,0,weatherlink.com 1.10,2013-04-14 04:12:00,
2013-04-13 23:27:00,57.7,46.0,29.71,East,101,1.0,6.0,66,0.00,,,0.00,0,weatherlink.com 1.10,2013-04-14 04:27:00,
2013-04-13 23:43:00,57.5,46.0,29.70,ENE,76,2.0,5.0,66,0.00,,,0.00,0,weatherlink.com 1.10,2013-04-14 04:43:00,
2013-04-13 23:58:00,57.4,46.0,29.69,East,86,2.0,7.0,67,0.00,,,0.00,0,weatherlink.com 1.10,2013-04-14 04:58:00,